Dewpoint
69 72 72 71 70 70 70 70 69 68 66 68 67 67 67 67 69 69 69 68 67 65 65 64 65 64 62 63 64 66 67 67 67 65 66 68 67 67 66 62 61 62 63
71 72 72 71 71 71 70 70 69 68 67 69 67 64 64 66 68 69 68 68 65 64 64 64 65 65 65 66 66 65 65 65 65 67 67 68 67 66 65 66 66 66 66
71 72 72 72 71 71 70 69 68 66 67 69 66 64 63 64 66 66 67 65 63 64 63 64 64 65 66 67 67 66 66 66 66 67 65 64 65 65 64 64 64 64 65
71 72 72 72 71 70 70 69 67 65 68 68 67 64 63 63 65 64 64 63 63 64 64 65 64 64 65 65 65 65 66 66 65 64 63 62 62 61 61 62 63 62 62
71 71 72 71 71 70 69 68 66 67 69 69 67 63 63 63 64 65 62 63 63 64 65 65 65 63 64 64 64 65 65 65 64 62 61 61 60 59 59 60 61 62 62
70 71 72 71 71 70 69 68 67 68 69 69 68 64 63 63 64 66 63 63 65 65 65 65 64 64 64 63 63 63 63 64 62 62 62 62 61 60 58 59 60 60 62
71 72 71 71 71 70 69 68 68 69 70 69 68 65 63 64 64 66 65 65 65 65 65 65 65 65 64 63 63 63 62 62 61 61 62 62 61 61 60 58 58 59 60
71 71 71 71 71 70 69 68 69 69 70 70 69 66 63 63 64 65 65 65 65 65 65 64 64 64 63 62 61 61 61 60 61 61 62 63 62 61 60 58 58 58 58
71 70 70 71 71 69 69 68 69 69 70 71 70 68 66 64 64 64 65 65 65 65 65 64 64 63 62 61 59 59 59 60 59 61 61 63 63 61 60 59 58 57 57
70 70 70 70 69 68 68 68 69 69 69 69 70 68 67 66 65 66 66 65 65 65 65 64 64 63 62 60 58 56 56 57 58 60 60 63 63 62 60 59 58 58 57
69 69 69 68 67 67 66 68 68 68 68 69 69 68 67 66 66 65 65 66 66 65 65 64 63 62 60 58 58 57 56 54 55 58 60 64 62 62 61 60 58 58 57
66 68 68 67 66 66 64 66 66 67 67 67 67 65 65 65 65 65 64 64 65 65 65 64 64 62 60 57 57 57 56 54 53 56 59 63 62 61 62 61 59 58 57
65 67 67 66 66 65 63 63 65 65 65 65 65 64 64 64 64 65 64 64 64 64 64 64 64 63 60 58 57 56 55 54 51 52 58 61 61 60 61 64 62 60 58
63 65 67 66 65 65 62 60 61 64 64 64 63 63 62 62 63 64 63 63 62 63 61 61 61 61 61 60 59 56 54 52 50 50 52 60 60 59 59 61 64 63 61
58 65 66 66 65 64 63 62 60 58 61 63 63 63 61 61 62 63 62 62 61 61 61 60 61 60 61 61 59 57 56 54 53 51 51 55 58 59 59 59 60 63 64
63 65 66 66 65 65 63 63 62 60 58 57 60 60 59 59 60 59 58 60 60 60 62 60 58 59 56 58 58 58 57 56 56 55 53 52 56 57 58 59 59 60 62
63 64 64 65 66 65 65 63 63 63 62 59 56 57 58 56 56 55 54 55 58 57 56 54 53 55 58 59 59 59 59 59 59 58 58 56 56 57 58 59 60 60 61
64 65 65 66 66 66 65 64 63 63 63 61 58 59 59 59 58 57 57 57 58 56 54 54 55 57 58 59 59 59 59 60 59 59 59 59 58 57 57 59 60 61 61
64 65 65 66 64 64 66 65 64 64 63 62 61 61 60 60 60 59 58 58 59 60 59 57 58 59 59 59 59 60 60 60 60 60 60 60 59 59 58 57 58 59 60
64 64 65 65 65 66 66 65 65 65 64 62 62 62 62 61 61 60 60 60 60 60 61 61 61 61 61 60 60 60 61 61 61 60 60 60 60 59 60 59 59 59 58
62 63 64 64 65 65 64 64 64 63 63 63 64 62 63 62 61 61 61 61 62 61 61 61 60 60 60 61 60 58 57 59 59 58 60 60 60 59 58 57 56 56 56
60 62 63 64 64 64 64 64 64 63 63 63 64 64 64 63 63 62 62 62 62 62 62 62 62 62 62 61 58 57 53 54 54 55 56 57 58 56 54 54 52 52 54
57 60 62 63 63 64 64 64 64 64 64 63 63 63 64 64 64 63 63 63 64 64 62 63 63 63 61 61 61 58 53 52 54 54 53 54 53 53 52 51 51 52 52
49 55 61 63 64 64 64 63 63 62 61 62 62 63 61 61 61 62 62 63 63 63 63 62 62 62 61 59 58 58 59 58 54 50 53 53 54 51 50 50 51 50 49
38 40 52 58 63 63 64 63 63 62 62 61 61 60 56 55 54 54 54 53 53 53 53 54 54 54 56 57 56 55 54 53 54 53 51 51 52 53 52 50 49 47 46
40 40 40 45 54 59 61 62 62 61 60 58 57 56 53 53 53 52 52 51 51 52 52 52 53 53 54 54 54 54 53 52 51 52 51 50 50 51 49 48 48 46 46
Wind_Speed
19 18 22 22 22 21 20 19 17 17 15 17 19 18 17 18 20 23 23 23 21 20 20 19 18 19 19 19 17 16 16 19 16 16 15 15 21 20 19 16 13 12 14
22 21 23 22 21 20 20 20 19 16 13 16 20 18 17 17 18 20 21 22 20 20 18 18 17 17 18 16 14 12 11 10 12 12 14 15 18 19 17 14 12 14 15
22 20 21 21 20 21 21 20 18 16 13 19 20 18 18 18 18 19 20 20 19 18 17 16 15 16 17 15 12 10 9 7 9 9 11 13 14 14 13 14 14 14 16
21 19 19 21 22 21 20 19 18 17 16 19 20 18 18 19 19 18 18 19 18 17 16 14 13 14 14 13 12 12 14 17 14 13 12 14 11 13 12 11 11 11 12
18 17 19 22 22 21 20 20 19 17 20 20 20 19 19 19 19 18 19 17 17 16 14 13 13 12 13 12 13 16 14 14 13 13 12 11 9 11 12 12 11 10 10
16 15 21 21 21 20 18 19 19 18 21 20 20 19 19 19 20 19 19 16 16 15 14 13 12 10 10 11 12 14 12 9 12 12 11 10 9 12 12 12 11 10 9
16 16 18 21 20 19 17 17 19 19 21 21 20 19 19 19 19 18 18 17 16 14 14 12 10 9 8 8 9 10 11 10 10 10 10 9 9 11 11 11 11 10 10
18 16 16 20 20 17 16 15 16 17 19 21 21 19 18 18 17 17 17 16 15 14 13 12 11 8 6 5 6 6 9 7 8 8 8 8 9 9 10 10 9 10 9
17 13 12 15 16 17 14 14 14 14 13 18 21 19 18 17 16 16 15 14 13 12 11 10 9 7 5 3 3 3 4 7 6 5 6 6 7 8 8 8 8 8 8
18 16 13 12 12 12 13 15 13 12 13 13 20 18 16 16 14 13 12 12 13 12 10 9 7 6 4 2 1 1 2 5 4 7 5 5 7 7 6 6 6 6 6
16 15 15 13 12 12 12 13 12 11 14 13 21 19 16 12 12 12 10 10 10 10 9 8 7 6 4 3 4 3 3 1 1 6 7 8 7 6 5 4 4 4 4
13 16 16 15 14 12 8 12 10 11 13 14 15 16 13 12 12 11 11 10 9 9 8 7 7 5 4 4 5 4 3 3 1 4 7 9 7 6 6 5 4 3 3
10 12 16 17 17 13 11 12 11 10 12 12 14 14 12 10 10 10 9 8 7 8 6 6 6 5 6 5 5 6 5 6 4 4 9 10 8 6 6 8 6 5 4
9 14 14 17 19 15 13 13 13 13 12 12 13 12 11 10 12 11 11 10 9 8 8 7 7 6 7 8 8 7 7 7 7 5 6 12 11 9 8 7 8 8 6
34 31 15 12 19 19 16 13 13 13 13 15 14 13 12 11 15 14 12 11 11 9 9 9 9 8 9 10 10 10 9 9 9 8 8 12 14 12 10 9 9 10 10
27 30 30 15 15 18 18 18 16 14 15 14 15 14 15 15 15 15 13 12 11 11 11 10 11 11 10 7 8 8 10 10 10 10 10 11 16 16 14 12 11 10 11
25 18 20 29 16 13 14 17 15 14 15 16 17 16 16 16 16 12 10 10 12 12 10 9 8 6 5 4 7 8 8 9 10 12 13 12 12 17 16 15 13 12 12
19 22 21 21 22 11 12 13 14 14 12 12 14 16 18 15 13 11 10 10 9 8 8 6 6 6 7 7 8 11 10 10 9 8 10 11 10 11 15 17 15 12 11
18 16 19 15 18 22 25 18 16 13 10 11 14 14 16 16 14 13 11 10 7 7 8 9 9 8 9 10 9 9 9 9 10 10 11 9 9 11 10 13 14 12 8
20 20 20 19 16 17 16 15 11 11 8 7 12 13 17 15 16 14 11 10 9 9 10 9 10 8 7 8 10 11 11 12 13 15 16 14 10 9 9 8 7 6 3
17 20 21 22 21 19 16 17 15 16 14 10 10 14 15 16 16 16 15 14 12 11 12 9 6 7 7 5 6 10 12 11 14 17 14 12 8 8 7 10 9 6 6
21 18 19 22 20 17 15 11 7 12 10 9 11 10 9 14 14 15 14 15 11 9 9 6 6 5 5 5 8 11 12 10 9 7 5 6 6 6 9 9 11 11 11
20 22 20 19 21 20 17 9 5 5 3 8 8 10 10 10 10 12 14 13 9 4 4 3 4 6 10 4 4 6 5 5 4 3 3 4 3 1 3 7 8 8 10
23 16 18 16 17 15 15 18 15 14 14 11 13 6 8 9 10 9 9 7 8 5 2 2 2 5 4 11 5 6 8 6 6 7 3 3 1 1 2 1 9 10 9
15 14 13 12 12 10 12 14 16 12 8 6 7 14 12 8 7 7 8 8 6 4 3 1 2 4 3 6 7 4 3 5 8 10 13 7 3 2 3 4 6 10 8
9 10 10 11 11 12 13 13 17 21 16 9 8 11 9 9 4 4 4 7 8 7 6 5 3 3 5 6 6 8 9 7 4 4 6 8 8 2 6 7 8 7 7
Wind_Direction
154 154 147 145 141 137 135 130 123 119 127 124 117 107 99 96 106 108 109 103 99 99 96 95 94 93 95 94 91 86 78 68 81 77 74 67 68 72 81 75 71 65 61
146 151 149 147 146 144 138 130 123 124 135 128 112 110 107 104 105 112 108 105 103 96 97 95 93 94 95 93 91 87 82 73 79 84 75 64 68 76 77 74 74 65 58
144 151 150 150 144 137 130 129 125 131 138 121 115 113 114 113 113 112 108 101 100 101 101 99 97 96 95 93 85 69 71 90 106 93 63 60 58 59 58 62 62 55 48
143 149 150 144 136 135 134 131 131 137 139 124 120 119 119 121 118 115 116 107 109 105 103 104 102 100 96 87 69 63 90 95 95 82 67 61 61 62 60 58 57 60 53
140 143 147 144 140 138 137 136 136 141 136 128 123 122 124 125 123 118 118 116 112 109 108 111 108 102 94 84 74 72 101 102 102 90 85 76 65 66 64 64 61 59 60
133 138 145 145 142 137 139 139 140 144 139 136 128 127 126 128 128 123 122 121 111 114 112 114 110 100 87 80 75 74 84 109 95 96 88 81 76 71 68 66 65 63 63
134 139 145 147 139 140 141 143 143 147 144 140 132 129 128 129 131 132 129 131 128 125 121 120 118 105 89 76 70 74 80 112 104 104 99 90 82 75 71 67 65 64 63
140 142 149 145 141 138 142 145 145 149 144 147 134 131 131 133 135 138 140 141 138 135 132 128 126 119 103 79 68 62 74 101 126 120 114 104 93 82 75 72 67 65 64
131 136 142 136 135 136 141 144 147 148 145 148 138 139 139 139 141 143 146 147 143 142 139 138 136 133 128 117 94 85 76 91 136 148 136 130 115 97 87 79 72 67 65
133 136 133 127 132 135 141 144 142 149 152 137 142 138 141 142 144 146 149 151 150 150 151 151 151 152 154 168 271 354 14 92 120 183 171 165 143 120 105 95 84 76 72
136 140 139 138 140 140 145 150 146 154 167 147 145 146 147 146 148 152 159 159 157 161 165 167 172 177 190 224 267 296 325 338 24 183 190 189 167 146 143 134 114 101 89
161 148 152 151 152 150 147 155 150 145 146 154 157 157 158 156 160 164 169 174 178 179 186 192 201 202 218 234 264 280 276 291 271 193 210 203 192 181 180 177 165 145 123
315 175 169 164 162 164 160 167 164 164 160 164 169 166 166 167 172 178 177 186 192 197 209 220 229 227 235 238 258 248 262 270 256 222 218 215 217 212 214 204 200 193 189
173 257 193 170 165 176 171 178 177 180 183 185 186 186 184 186 190 191 192 198 204 210 217 226 234 239 244 244 252 252 251 257 248 240 238 221 226 227 228 228 220 216 215
170 194 204 186 174 174 178 182 180 193 199 202 202 191 195 197 195 196 205 205 211 210 218 232 242 249 257 252 244 244 250 250 257 254 245 234 231 232 229 230 234 233 228
173 182 168 209 208 171 180 183 190 192 206 211 210 200 195 194 193 204 210 213 219 213 220 226 234 237 251 250 257 248 253 257 259 259 252 249 236 234 230 229 233 237 246
182 189 179 176 210 188 190 185 193 198 203 205 210 212 201 195 200 195 200 209 216 222 219 215 222 224 247 253 264 268 263 262 264 262 258 251 247 237 236 233 231 236 243
177 179 171 170 165 190 246 221 202 203 195 200 201 192 190 189 192 193 199 205 210 209 218 226 237 247 250 258 268 272 272 275 280 287 282 256 246 238 239 242 232 234 245
186 174 175 193 183 181 212 212 208 201 205 208 195 193 191 191 189 189 200 213 213 214 222 228 236 230 248 255 254 264 274 275 286 291 288 285 257 252 242 243 230 233 253
186 182 182 192 197 198 201 205 198 195 198 198 195 192 196 197 196 195 205 215 213 217 227 229 230 231 247 264 278 288 292 291 287 286 281 277 259 239 241 218 197 202 209
195 187 187 189 195 183 190 198 211 208 205 192 203 202 207 201 198 195 202 204 216 225 231 227 225 240 251 245 277 281 288 280 272 273 279 286 285 239 197 174 161 146 110
201 200 198 200 194 195 189 196 190 199 204 195 198 203 204 200 194 199 201 206 212 220 218 218 233 260 274 264 272 293 295 300 276 291 315 329 288 191 177 168 145 138 131
205 203 200 204 199 196 195 176 154 164 133 199 207 203 211 189 184 195 198 197 188 185 220 254 266 264 276 291 287 266 287 262 322 292 301 22 49 336 174 163 145 124 128
212 210 205 202 201 207 188 193 205 201 197 204 210 190 164 160 155 148 147 163 174 165 208 268 280 252 226 266 302 269 258 276 283 291 330 22 25 332 188 193 128 120 114
211 218 222 206 210 207 201 201 197 223 227 196 172 164 156 156 156 150 157 149 138 126 124 154 254 244 226 243 243 270 285 273 262 254 274 277 325 67 99 125 115 113 104
179 193 199 202 194 203 193 199 205 203 199 197 183 182 176 145 143 163 150 143 148 148 166 176 200 235 246 245 245 237 234 239 263 251 267 262 269 343 87 100 107 97 88